Theta_e
336 345 350 350 351 351 349 349 349 348 346 346 346 346 346 346 345 344 343 342 341 341 340 338 338 338 338 338 339 339 339 338 339 338 333 332 336 338 339 340 340 339 339 340 340 340 340 340 340 339 339 339 339 339 339 339 337 337 336 336 335 335 335 336 335 333 332 329 327 325 324 323 324 324 323 321 319 318 317 316 315 312 311 311 310
336 342 348 350 350 350 349 348 348 348 346 346 347 347 346 346 345 344 343 342 342 341 340 339 338 338 338 339 339 339 339 338 338 339 337 334 334 337 339 340 340 340 339 339 340 340 340 340 340 340 339 338 339 340 339 338 337 336 336 336 335 335 335 335 333 333 332 331 330 328 326 324 324 324 323 321 319 318 317 317 315 313 311 311 309
336 342 349 350 349 349 348 347 347 347 346 346 347 347 346 346 346 345 344 343 343 342 341 340 339 339 339 339 339 339 339 338 338 340 339 335 334 335 338 340 340 340 339 339 340 340 340 340 340 340 339 338 339 340 339 338 337 336 336 335 335 334 334 334 333 333 332 332 331 330 329 328 326 324 323 321 320 318 317 316 315 313 311 310 309
335 340 348 350 349 350 348 347 347 346 346 346 346 346 345 346 346 346 345 344 343 342 341 341 340 340 340 340 340 340 339 339 340 341 340 337 336 336 338 340 340 339 339 339 339 340 340 340 340 340 339 338 339 340 340 338 337 336 336 335 335 334 334 334 333 333 332 331 331 330 329 328 327 325 323 321 320 318 317 316 315 313 311 310 309
333 336 344 349 349 350 349 348 347 345 345 346 346 345 344 345 345 346 346 346 345 343 342 342 341 341 341 341 341 341 340 340 341 342 341 339 337 337 338 339 340 340 339 339 339 339 340 340 340 340 338 338 338 340 340 338 337 337 335 335 334 334 334 334 333 333 332 331 331 330 329 328 328 326 324 322 319 318 317 316 315 314 312 311 310
331 332 338 347 350 351 351 350 349 347 345 346 346 344 344 345 344 345 346 346 346 344 343 342 342 341 341 341 341 342 341 341 341 342 342 339 337 338 339 340 340 340 340 339 339 339 340 340 340 340 339 338 338 339 340 339 338 337 336 335 334 333 334 333 333 332 331 330 330 331 331 331 330 326 325 324 320 318 317 316 315 314 313 311 310
330 330 332 343 349 352 352 351 350 349 348 347 347 346 346 346 345 344 345 347 347 345 344 343 343 342 341 341 341 341 341 341 341 342 343 340 338 339 340 341 340 340 340 339 339 339 339 339 340 340 339 339 338 338 339 339 338 337 336 335 334 333 333 333 333 332 331 330 330 330 330 330 329 327 327 326 323 320 318 317 316 315 314 312 311
329 331 331 337 346 351 352 352 350 350 350 349 348 347 347 346 345 345 346 347 346 346 345 344 343 342 342 342 341 342 342 342 341 342 342 341 340 340 341 341 340 339 339 339 339 339 339 339 340 340 339 339 339 339 339 339 338 337 336 335 334 333 333 333 332 332 331 330 329 329 329 328 328 328 329 328 326 324 320 318 317 315 315 313 311
328 332 332 336 345 350 350 350 350 349 350 350 349 348 347 347 346 345 346 346 346 346 346 345 344 344 343 343 342 342 342 342 342 342 342 342 341 341 341 340 340 339 339 339 339 339 339 339 340 340 339 339 339 338 338 338 337 337 335 334 334 334 333 332 332 331 331 330 329 328 328 328 328 328 328 328 328 328 324 320 318 317 316 314 313
327 330 334 337 344 348 349 350 350 349 349 350 350 348 347 347 346 345 345 346 346 346 346 346 345 345 344 343 343 342 342 342 342 342 343 342 342 342 341 340 339 339 339 339 339 339 339 339 340 339 339 339 338 337 338 337 336 335 335 334 334 334 333 332 332 332 331 331 331 330 329 329 328 328 328 327 328 328 326 323 321 320 318 316 314
324 327 332 337 343 348 348 350 350 351 350 350 349 347 347 346 345 345 345 345 346 346 346 346 346 345 345 344 344 344 343 342 343 344 343 342 342 342 341 340 339 338 339 339 339 339 339 339 340 340 339 339 338 337 337 337 335 334 334 334 333 333 333 332 332 332 331 331 331 331 330 329 329 328 328 328 327 328 327 325 323 322 320 319 315
321 323 327 333 341 346 348 350 351 352 351 350 348 347 346 346 345 345 345 345 346 346 346 346 346 346 345 345 345 344 344 343 344 344 343 342 343 342 342 341 339 338 339 339 339 339 339 339 339 339 339 339 338 337 336 336 335 334 334 334 333 333 333 333 332 333 332 331 331 330 330 329 329 328 328 328 328 327 327 326 324 322 320 319 315
319 321 323 327 334 341 347 350 351 352 351 349 348 347 347 346 345 345 345 345 345 346 346 346 346 346 346 346 346 345 344 344 343 344 343 343 342 343 342 341 339 339 339 339 339 340 339 339 339 339 339 338 338 337 336 335 335 335 334 333 333 333 333 332 332 332 332 331 331 330 330 329 329 328 328 328 328 327 327 325 323 321 320 318 314
318 319 321 323 327 335 343 347 349 351 351 349 348 348 348 347 345 345 345 346 345 346 346 346 347 346 346 346 346 345 344 344 343 342 343 342 342 343 342 341 339 339 339 339 339 339 339 339 339 339 339 338 337 336 335 335 334 334 333 333 332 331 331 331 331 331 331 331 331 330 330 330 329 328 328 328 327 327 326 324 323 321 321 319 314
316 317 319 322 325 331 338 343 346 349 350 350 349 349 349 348 346 346 346 346 346 346 346 346 346 346 346 347 346 346 345 344 343 342 342 342 342 342 342 341 340 340 340 339 339 339 339 339 339 340 339 337 337 336 335 334 334 333 332 332 331 330 329 329 329 329 330 330 330 330 330 329 329 328 328 328 327 326 324 323 323 321 320 319 316
315 316 318 320 323 327 333 340 344 346 348 350 350 350 349 348 348 347 347 346 346 346 346 346 346 346 346 346 346 346 345 345 344 342 342 342 342 342 342 340 340 340 339 339 339 339 338 339 340 339 338 337 336 335 335 334 333 332 331 330 330 329 328 328 328 328 328 329 328 328 328 327 327 327 326 326 325 324 323 322 323 321 319 318 316
315 315 316 318 321 324 329 334 340 344 346 349 350 350 349 349 349 348 347 347 347 347 346 346 346 346 346 346 346 347 346 346 345 343 342 343 342 341 341 340 340 340 340 339 339 339 338 339 339 338 337 337 336 335 335 333 332 330 329 329 328 327 326 327 327 327 327 327 327 327 326 326 326 325 325 324 323 322 321 320 321 320 318 317 316
316 316 317 318 319 322 324 327 333 339 343 347 350 350 349 350 350 349 348 348 348 347 346 346 346 346 347 346 346 346 346 346 346 344 343 343 342 342 341 341 340 340 340 340 339 338 338 339 339 338 337 336 335 335 333 332 330 329 328 327 327 326 325 325 325 324 325 325 325 325 324 324 323 322 321 320 320 319 318 317 318 317 316 316 316
316 316 317 317 318 320 323 326 328 334 340 344 347 349 349 350 350 350 349 348 348 348 347 346 346 346 347 346 346 346 346 346 346 344 343 343 342 342 342 341 341 341 341 340 339 338 338 338 338 337 336 336 335 334 332 330 328 328 328 327 326 324 324 324 323 322 323 322 322 322 321 321 319 318 317 317 316 316 315 315 315 315 316 316 316
319 320 320 319 320 320 323 327 327 328 335 340 344 347 348 349 350 349 349 348 347 348 347 346 345 346 346 345 346 346 346 346 345 344 344 343 342 342 342 342 341 341 341 340 339 339 338 338 338 336 336 335 334 332 330 329 327 327 327 326 325 323 322 322 321 320 320 320 320 320 319 318 317 315 315 314 314 314 314 313 313 314 315 315 315
321 322 323 323 324 324 323 326 327 327 331 336 341 345 347 348 349 348 348 348 348 348 347 346 345 345 345 345 345 345 346 346 345 344 344 343 342 341 341 342 342 341 341 340 339 339 338 338 337 336 335 334 333 331 329 328 327 326 326 325 323 322 321 321 320 319 318 318 318 318 317 316 315 314 314 312 312 311 311 311 312 312 312 312 313
321 321 323 323 325 326 326 325 327 328 331 334 338 342 345 347 348 348 348 348 348 348 346 345 345 344 344 344 345 345 346 346 345 345 344 343 342 341 341 342 342 341 341 340 339 338 338 337 337 335 334 333 332 330 328 327 326 326 325 323 322 321 320 320 319 317 317 317 317 316 315 315 314 313 312 311 310 309 308 308 308 309 310 311 311
321 321 322 323 324 326 327 327 327 328 330 334 337 339 343 346 347 347 348 347 347 347 345 344 344 344 344 344 345 345 346 346 345 345 344 343 342 341 341 341 341 341 341 340 339 338 337 337 336 335 334 333 331 329 327 326 325 325 323 322 321 320 319 319 318 316 316 316 316 315 315 314 313 312 311 309 309 308 307 307 307 308 309 310 311
321 321 321 323 324 326 326 327 328 328 328 332 336 339 340 345 347 347 347 347 347 346 345 344 344 344 343 344 344 345 345 345 345 345 344 343 342 341 341 341 341 341 340 340 339 337 337 336 335 334 333 332 330 328 327 325 324 324 322 321 320 320 319 318 317 315 315 315 315 315 314 313 312 311 311 309 309 308 306 307 307 307 310 311 311
320 320 321 321 322 324 325 326 329 328 327 329 335 340 341 343 346 347 347 347 346 346 345 345 345 344 343 343 344 344 345 345 345 344 343 342 342 342 341 340 340 340 340 339 338 337 336 335 334 333 332 331 329 327 326 324 323 322 321 321 320 319 318 317 316 315 314 314 314 314 314 312 311 311 310 309 308 307 307 306 305 306 309 309 308
318 319 321 322 323 324 325 327 329 329 328 328 332 339 342 343 345 346 346 346 346 346 345 345 345 343 343 343 344 344 344 345 345 344 343 342 342 341 340 339 340 340 339 338 337 336 335 335 334 333 332 330 328 327 325 324 323 321 320 320 320 319 318 316 315 315 314 314 314 314 313 311 311 311 310 309 308 308 307 306 305 306 305 304 305
317 318 320 321 323 325 327 329 331 331 330 329 329 336 342 344 345 346 346 346 346 346 345 345 345 343 343 343 343 343 343 344 344 344 343 342 341 341 340 339 339 340 339 337 336 335 334 334 333 332 331 330 328 326 324 323 322 321 320 320 319 318 316 315 314 314 313 313 313 313 312 311 310 310 310 309 308 308 307 306 306 306 302 301 304
316 317 319 319 321 325 327 330 333 334 333 331 330 334 340 343 345 347 346 346 346 346 346 346 345 344 343 342 342 343 343 343 344 343 343 342 341 340 339 338 339 339 338 337 336 334 333 333 332 331 330 329 327 325 324 322 321 320 320 320 319 317 316 314 314 313 313 313 312 312 311 310 309 310 309 308 308 307 307 306 306 305 303 302 304
315 317 318 319 320 323 325 329 335 338 336 333 331 333 339 343 344 346 346 346 346 347 346 345 345 344 343 342 342 343 343 343 343 342 342 341 341 340 339 338 339 339 338 337 335 334 333 332 331 330 328 327 325 325 325 324 321 319 320 320 319 317 315 314 313 312 312 312 311 311 310 309 309 309 308 307 307 306 306 306 305 304 304 305 305
316 317 317 318 319 321 324 328 335 340 339 335 332 333 337 341 343 344 346 346 346 346 346 345 344 343 343 342 342 342 343 342 342 342 342 341 340 339 338 338 338 338 337 336 335 333 332 332 330 328 327 325 325 326 328 326 322 319 320 320 318 316 314 313 313 312 312 311 311 310 309 308 307 306 304 303 303 301 303 305 305 304 304 305 305
316 316 317 318 319 320 321 325 333 341 342 336 333 333 336 340 343 344 345 346 346 346 346 344 343 343 342 342 341 342 342 342 342 342 341 340 340 339 338 338 338 337 337 335 334 333 332 331 329 327 326 325 326 327 330 328 323 320 320 319 318 316 314 313 312 312 312 311 310 310 309 307 305 303 302 302 301 301 301 303 302 303 305 306 305
318 319 319 320 320 320 320 322 329 338 343 338 333 333 336 340 343 344 345 346 346 346 344 343 342 342 342 341 342 342 342 342 341 342 341 340 339 338 338 338 337 337 336 335 333 333 331 330 328 327 326 326 326 328 330 328 322 320 319 319 317 315 313 312 312 312 311 310 310 310 309 306 304 304 303 302 302 301 302 302 300 299 302 304 305
321 322 322 322 322 321 321 323 327 333 340 341 336 333 336 340 342 344 345 345 345 345 343 342 342 342 341 341 342 342 341 341 341 341 340 339 338 337 337 337 337 337 335 334 333 332 331 329 328 327 326 325 326 328 330 327 322 319 319 318 317 315 313 312 311 311 310 310 310 309 309 307 305 304 304 303 303 302 302 301 299 296 297 299 300
322 322 322 323 323 322 323 325 327 330 336 341 339 335 336 339 342 343 344 345 344 344 343 341 341 341 341 341 342 342 341 341 340 340 339 338 337 337 337 337 337 336 335 334 333 331 330 329 328 327 326 325 325 327 329 326 321 319 319 318 316 314 312 311 311 310 310 310 310 309 309 308 308 306 304 305 304 302 301 300 298 298 298 298 297
323 323 323 324 324 324 326 327 328 330 334 340 341 338 337 339 341 342 344 344 344 343 342 341 340 341 341 341 341 341 341 340 339 339 338 337 337 336 337 337 337 336 335 334 332 330 329 329 328 327 325 324 325 327 328 326 321 319 319 317 315 313 312 311 311 310 311 310 309 309 309 309 309 307 305 305 306 304 302 301 300 301 302 301 300
323 323 324 325 326 327 327 327 328 329 333 338 341 340 339 340 341 342 343 342 342 341 341 341 340 341 341 341 341 341 340 340 339 338 338 337 336 336 336 337 337 335 334 334 332 329 328 328 327 326 325 324 324 327 329 326 321 318 317 316 314 313 312 311 311 311 311 310 309 309 309 309 310 308 306 305 306 305 303 302 302 303 303 303 303
323 324 326 327 327 328 328 328 328 328 331 337 340 340 340 341 342 342 342 341 340 340 340 341 341 341 341 341 340 340 341 340 338 337 337 336 336 336 337 336 336 336 334 332 331 329 328 327 326 325 324 323 323 326 328 325 321 318 315 313 313 313 312 311 311 311 310 310 310 308 308 309 310 308 306 305 305 304 304 303 303 304 304 304 305
324 325 326 327 327 328 328 327 327 327 330 336 340 340 339 341 342 342 341 341 340 340 341 341 341 341 340 340 340 340 340 339 338 337 336 336 336 336 336 335 335 336 334 332 330 329 328 326 325 324 324 323 324 325 326 325 321 317 314 313 313 312 311 311 311 311 310 310 309 308 308 309 309 308 306 304 304 303 304 303 303 304 304 303 304
324 326 327 328 328 329 328 327 327 326 328 335 341 341 339 340 340 341 341 341 340 340 341 341 341 340 340 340 340 340 340 338 337 337 336 336 336 336 335 334 334 334 333 331 330 329 328 326 325 324 324 324 324 325 325 324 322 317 313 313 313 312 311 311 311 311 310 309 309 308 308 308 308 307 305 304 303 302 302 303 303 303 303 302 302
325 326 327 328 329 329 329 328 326 326 329 336 341 341 340 340 340 340 341 341 341 340 341 341 341 341 340 340 341 340 339 338 337 337 336 335 335 335 334 334 333 332 331 330 329 328 327 326 324 324 324 324 324 325 324 324 322 317 313 313 313 311 311 311 311 310 309 309 310 309 307 306 307 306 304 304 303 300 300 303 303 302 302 302 302
326 327 327 328 329 329 329 327 325 327 332 338 341 341 341 341 340 341 341 341 340 340 341 341 341 341 340 341 341 340 338 337 337 336 335 334 334 334 334 333 333 333 332 330 329 327 326 325 325 324 324 323 323 324 324 323 321 317 313 312 312 312 311 311 310 310 309 309 309 308 306 304 304 304 303 304 301 296 297 303 303 301 302 302 302
326 327 327 328 330 330 330 326 325 328 334 338 340 341 341 341 341 341 341 341 341 341 341 341 341 341 341 341 340 339 338 337 336 336 335 334 334 335 334 333 333 333 332 330 328 326 326 327 325 323 322 322 321 322 323 323 321 317 313 311 312 312 310 310 310 309 309 309 308 308 307 304 303 302 303 304 301 295 295 301 303 301 302 302 302
325 326 327 329 330 331 330 327 326 329 334 337 339 340 341 341 341 341 341 341 341 341 341 341 341 341 341 340 340 338 337 337 336 335 335 334 334 334 334 332 332 332 331 329 327 326 326 326 324 322 321 320 319 318 320 321 320 317 313 311 311 310 309 309 309 309 309 309 308 309 308 305 302 302 303 303 303 298 294 296 301 303 302 301 301
325 327 328 329 330 331 330 327 327 330 334 336 338 340 341 341 341 341 341 341 341 340 341 341 341 341 340 340 339 338 337 336 336 335 335 334 333 333 333 332 331 330 329 328 326 326 325 323 321 320 320 319 318 316 317 319 319 317 313 311 310 309 307 308 309 309 309 309 309 309 308 305 303 303 304 303 303 302 298 296 299 301 301 300 302
326 328 329 328 330 331 330 328 327 330 334 336 337 338 340 341 340 340 340 341 340 340 341 341 340 340 339 339 338 338 337 336 335 335 335 334 333 332 331 331 330 329 328 327 326 325 323 321 320 319 319 318 316 314 315 317 318 316 313 311 310 309 307 306 308 310 310 310 309 308 306 304 303 303 304 303 303 303 302 299 299 300 301 301 303
328 329 329 330 331 332 331 329 329 331 333 336 336 337 338 339 339 340 340 340 340 340 340 340 340 339 339 338 338 337 337 336 335 335 335 334 333 332 331 330 329 327 326 326 324 323 322 321 320 320 319 316 314 313 314 316 315 313 312 310 309 309 307 306 307 310 309 308 308 306 303 304 304 304 304 304 303 303 303 302 301 301 302 302 303
328 328 329 330 332 332 331 331 330 331 334 336 337 336 337 338 338 339 339 339 340 340 339 339 339 339 339 338 338 337 336 335 334 334 334 333 333 333 331 328 327 326 325 324 322 321 321 321 320 319 318 315 313 312 312 313 312 310 309 308 308 308 308 306 307 308 308 306 306 305 304 304 304 304 304 303 303 303 302 302 302 302 302 303 303
326 328 329 331 333 333 333 332 331 333 335 337 336 336 336 337 338 338 338 339 339 339 338 338 338 338 338 339 338 337 336 335 334 334 334 333 333 332 329 327 327 326 325 323 321 321 320 319 318 317 315 313 313 312 311 312 312 310 308 307 308 308 307 306 306 307 308 307 306 306 305 304 304 304 303 303 303 303 303 303 302 303 303 303 304
325 327 329 331 334 334 334 334 334 334 335 336 335 335 336 337 337 337 337 338 339 338 338 338 338 338 338 338 337 336 336 336 335 334 334 334 333 331 328 328 327 327 327 326 323 322 321 319 318 316 314 314 315 313 312 314 315 315 313 311 310 309 308 306 306 307 308 308 306 306 305 305 304 304 304 304 305 305 305 305 304 305 305 305 305
324 327 329 331 332 333 333 333 334 334 334 334 334 334 335 336 337 337 337 338 338 338 338 338 338 338 338 337 336 335 335 335 335 333 332 332 332 331 330 329 329 328 328 327 326 325 322 320 319 317 317 317 317 315 315 316 317 318 317 315 314 312 309 307 306 307 308 308 307 307 306 306 306 306 305 305 306 306 306 306 306 306 306 306 306
324 326 328 330 331 331 331 332 332 332 333 333 334 334 334 335 335 335 336 337 338 338 337 337 337 337 336 336 336 335 334 333 332 331 330 330 329 329 328 329 329 329 327 326 326 325 324 322 321 319 318 318 317 318 319 320 319 319 318 316 314 312 309 307 306 307 308 308 307 307 307 307 306 307 306 306 306 307 306 306 306 306 306 306 306
Wind_Speed
17 18 21 22 20 20 20 19 21 22 21 22 25 27 26 25 25 24 23 24 24 24 23 23 22 21 21 20 20 20 20 18 18 17 17 18 18 17 18 18 16 16 15 15 15 13 12 12 11 10 11 11 11 11 11 10 11 12 11 11 11 10 9 10 11 12 11 10 8 6 6 7 7 6 5 6 6 6 5 5 5 5 6 6 6
15 16 17 19 18 18 19 19 21 23 23 26 27 27 26 25 26 25 25 25 25 24 23 23 22 20 20 20 19 20 20 19 19 18 17 17 19 18 17 17 16 16 16 15 15 14 13 12 11 11 11 11 11 11 11 11 12 12 11 11 11 10 10 11 13 13 11 10 9 7 6 7 7 7 7 7 7 7 6 6 6 6 6 7 6
15 15 15 18 18 19 19 18 20 22 23 25 25 24 25 25 26 26 26 26 26 25 23 23 22 20 18 18 18 18 19 19 17 17 18 17 19 19 18 17 18 17 16 15 15 15 14 13 12 11 12 11 11 11 12 12 13 13 13 12 11 11 10 12 15 13 9 9 10 7 5 6 6 9 10 10 10 8 7 7 7 7 7 7 7
17 16 14 17 19 20 19 18 20 21 22 25 24 24 26 26 26 26 27 27 27 26 24 22 22 21 18 17 17 17 18 18 16 16 18 18 19 20 19 18 18 17 16 16 15 15 15 13 12 11 12 12 12 12 13 14 14 13 14 13 12 11 10 11 14 13 10 9 8 4 4 5 5 8 12 11 11 10 9 8 7 7 8 8 7
19 18 15 15 17 19 21 21 21 22 25 27 26 27 29 29 29 28 27 27 27 27 25 23 22 22 20 18 18 18 18 19 18 18 19 20 20 20 20 19 19 18 17 17 16 16 16 14 12 12 13 13 13 13 13 14 14 14 15 14 13 12 11 11 12 12 12 10 8 4 3 4 4 6 10 9 10 11 10 10 9 8 9 8 7
19 19 16 14 16 19 21 22 22 23 26 28 29 31 30 28 30 30 28 27 26 28 28 25 24 24 23 22 22 22 22 22 21 20 21 21 20 20 20 19 20 19 18 18 17 16 16 15 14 13 14 14 14 14 13 14 14 15 15 14 14 13 12 11 12 12 12 11 11 8 5 4 2 5 5 4 9 11 11 11 11 10 10 9 9
19 20 19 16 16 17 18 21 22 23 26 27 28 29 27 25 28 31 29 26 26 28 30 27 25 26 25 24 24 24 24 23 22 21 21 21 20 20 20 19 20 20 19 19 18 17 16 15 15 14 14 14 14 14 13 14 14 14 15 14 14 14 13 12 12 12 12 12 12 11 9 7 5 4 4 3 5 8 10 12 12 12 11 11 10
18 18 20 18 16 17 18 19 22 24 24 25 25 27 27 26 28 29 27 25 26 28 30 29 27 28 27 25 23 23 23 21 21 21 21 21 20 21 20 21 22 22 21 19 19 18 16 16 16 16 15 14 14 14 14 14 14 14 15 15 14 14 14 13 12 12 12 12 12 12 11 10 10 10 10 9 5 4 8 11 12 12 12 12 11
19 18 18 17 17 19 21 21 23 24 23 23 24 25 26 25 25 26 25 24 26 28 29 29 28 28 28 26 23 22 21 21 20 21 21 22 22 22 22 22 23 23 22 20 19 19 17 16 16 16 15 15 15 14 14 15 15 15 15 16 15 14 14 14 12 12 12 12 11 12 12 11 12 12 12 11 9 7 4 7 10 11 11 12 12
18 18 17 16 18 21 22 22 23 23 22 22 22 21 24 24 24 26 27 25 25 27 29 28 27 27 27 26 25 23 22 22 21 21 23 23 23 24 23 23 23 23 22 21 20 20 18 17 17 17 16 16 15 15 14 15 16 17 16 16 16 15 14 14 13 13 13 12 11 12 12 12 12 11 11 11 11 10 6 6 10 12 9 11 13
16 17 16 15 17 20 21 21 21 20 19 21 22 22 24 24 25 27 28 27 25 27 29 28 29 29 26 26 27 25 24 23 22 23 24 24 24 24 24 23 24 24 23 22 21 20 19 19 18 17 17 17 16 15 15 15 16 17 16 16 16 15 14 13 14 14 13 13 13 14 13 12 12 11 11 11 10 10 7 7 9 10 9 10 13
15 15 15 14 15 16 18 19 19 19 19 20 23 23 23 24 26 29 29 28 26 28 30 30 32 30 27 27 28 27 26 25 24 24 24 25 25 24 24 23 23 24 24 23 22 21 21 20 19 18 17 17 17 16 15 15 15 15 15 14 14 13 13 13 13 14 14 14 14 15 14 13 14 14 12 11 11 10 9 8 9 8 7 7 11
14 13 13 12 12 13 15 17 19 19 20 22 23 24 23 25 27 29 30 30 29 30 31 32 34 32 30 29 28 28 27 26 25 25 26 26 26 25 25 25 25 25 26 25 23 21 21 21 21 19 17 17 17 16 15 15 14 13 13 13 12 13 13 14 14 14 14 15 14 14 14 14 15 15 14 13 11 11 11 11 10 6 6 6 9
12 11 12 12 12 12 13 17 19 20 20 22 24 25 24 26 28 31 30 30 31 31 31 33 34 33 32 30 29 28 28 27 26 27 27 27 27 26 26 27 27 26 25 26 24 22 23 22 20 19 18 17 17 17 16 15 14 13 12 12 13 13 14 14 16 14 14 15 14 14 14 14 15 14 14 13 12 12 12 11 9 6 7 7 8
11 10 11 12 12 12 14 16 19 19 20 22 23 24 24 25 28 31 31 32 33 32 33 34 34 34 34 32 30 28 28 28 28 28 27 27 28 26 26 28 28 24 23 24 24 24 24 22 20 20 19 18 18 18 16 15 15 13 12 12 12 13 13 14 15 14 14 14 15 15 14 14 14 14 14 14 13 14 13 12 10 7 6 7 7
12 11 11 11 11 12 14 16 18 19 20 22 23 24 24 24 26 29 32 33 34 35 35 35 35 34 34 34 32 28 27 28 29 29 27 27 28 26 27 29 27 23 23 24 24 25 25 23 20 21 20 19 19 18 17 16 15 14 13 12 12 11 12 13 13 13 14 15 15 16 15 14 14 15 15 14 14 14 12 11 11 10 7 5 6
14 13 12 12 12 12 15 17 18 19 20 23 24 25 26 26 26 28 30 31 33 35 35 36 35 34 34 35 34 31 29 28 29 29 28 28 29 27 27 29 26 23 23 24 25 26 26 24 22 21 20 19 19 18 17 16 15 14 13 12 12 11 11 12 12 12 13 13 14 15 14 14 13 14 13 13 12 12 11 11 11 12 10 6 5
15 15 14 13 12 13 15 18 19 20 22 23 26 27 27 28 28 29 30 30 31 33 36 37 35 33 34 36 35 34 32 29 28 28 28 29 30 28 27 28 26 24 24 25 26 26 26 25 23 22 20 19 19 19 18 17 15 14 13 12 11 11 11 11 11 11 11 11 12 12 13 12 11 11 10 9 10 10 11 11 11 12 11 9 7
14 14 13 13 13 14 16 18 20 22 23 24 26 27 27 28 29 29 30 30 31 31 32 34 32 32 34 36 36 36 34 30 27 27 28 30 31 30 28 27 26 25 25 26 26 25 26 25 23 22 21 20 20 20 18 17 16 14 13 12 12 12 11 11 11 11 11 11 11 11 12 10 9 8 8 8 8 9 10 11 11 11 10 10 9
8 9 10 11 12 13 16 18 20 22 23 24 25 26 27 27 27 28 28 28 30 29 28 30 32 33 34 35 36 37 34 31 30 28 28 30 30 30 29 28 27 27 27 27 26 26 26 25 24 22 22 21 21 20 18 17 16 15 14 13 12 12 12 11 11 11 11 11 11 12 11 10 8 8 7 7 8 8 9 10 10 10 10 9 9
4 5 6 8 9 12 14 16 18 20 21 23 24 25 26 26 26 26 27 27 28 29 28 30 31 33 35 35 35 36 35 32 31 29 30 30 30 30 31 30 30 30 29 27 25 25 25 25 24 23 22 22 21 20 19 18 17 15 14 13 12 13 12 11 11 12 12 12 12 12 11 9 8 8 8 7 8 8 9 9 9 9 10 10 10
4 4 5 6 7 10 13 15 16 17 19 21 23 23 24 25 25 25 26 27 28 29 29 30 31 33 35 35 35 35 34 32 32 32 33 30 28 31 32 31 32 31 29 27 25 24 24 24 24 23 22 22 21 21 20 20 18 16 15 14 13 13 13 12 12 12 12 12 12 11 11 9 9 9 8 7 7 7 8 8 8 9 9 10 10
6 6 5 6 7 9 11 14 15 16 17 19 21 22 23 25 25 26 27 28 28 29 30 30 31 33 33 33 33 32 32 33 33 34 35 30 28 32 33 32 33 32 28 26 25 24 24 24 23 23 23 22 21 21 22 21 19 17 17 16 14 13 13 13 12 13 13 13 12 12 11 10 10 9 9 8 7 7 7 7 8 8 8 8 9
8 7 6 7 7 8 10 11 13 15 17 19 21 22 23 24 25 26 28 29 29 29 29 29 30 32 31 32 33 32 32 34 33 34 34 30 28 32 34 33 33 30 27 26 24 24 25 25 24 23 23 22 22 21 23 22 20 19 18 16 14 13 13 14 13 14 14 14 14 13 12 12 11 11 10 9 8 8 7 7 7 6 6 5 5
9 9 8 9 9 9 9 9 11 13 16 18 20 22 24 25 26 27 27 28 29 29 29 30 30 30 30 32 35 35 34 34 35 35 33 31 30 30 32 35 33 29 27 26 25 24 25 25 25 24 23 23 23 23 23 22 20 20 18 15 15 14 14 14 14 15 15 15 15 14 13 13 13 12 11 10 9 9 7 7 7 6 6 6 5
11 10 9 9 9 9 10 9 9 12 15 17 19 21 24 25 27 27 27 28 29 29 29 30 30 30 30 33 35 35 36 35 35 34 33 33 33 31 33 35 33 29 27 26 26 25 25 25 25 25 24 23 23 23 24 23 23 22 19 16 15 15 14 15 15 15 16 15 15 14 14 14 14 13 12 11 10 10 8 8 8 8 9 9 8
12 11 9 8 8 8 9 9 10 12 15 17 19 21 23 25 26 27 28 28 28 29 29 29 30 30 30 33 35 36 37 36 35 34 33 35 35 34 35 36 32 29 27 27 27 26 25 26 25 24 24 24 23 23 23 24 24 22 19 17 16 16 15 15 15 15 15 15 15 14 14 15 15 14 13 12 11 10 9 9 9 10 12 13 11
13 11 10 9 8 7 7 8 10 12 15 17 20 21 23 24 25 27 28 27 27 28 29 29 30 30 30 33 36 37 37 35 35 35 34 35 35 34 35 35 32 30 28 28 28 27 26 26 24 25 25 23 24 24 24 26 25 22 20 18 17 17 16 16 15 15 15 15 15 14 14 15 15 14 14 13 12 11 10 10 10 11 12 12 10
15 13 11 10 9 8 8 8 9 11 14 17 19 21 22 22 23 24 26 26 26 27 28 29 29 29 30 31 33 35 35 34 35 35 34 35 36 34 34 34 32 30 28 27 28 27 27 26 24 25 25 24 26 28 29 29 26 21 20 19 17 17 17 16 16 15 15 15 15 14 14 15 16 16 16 14 14 13 11 11 11 12 13 12 11
16 15 12 10 9 9 9 9 9 10 13 16 18 21 22 22 23 23 24 25 26 27 28 28 28 29 29 30 32 33 34 34 34 33 34 36 37 36 36 34 32 30 27 26 27 27 27 28 26 25 25 27 31 33 32 32 29 24 21 18 17 17 17 16 16 16 16 15 15 14 14 17 18 18 17 15 14 14 13 11 12 13 13 12 11
17 16 14 11 11 11 11 11 10 11 13 15 17 20 22 23 24 25 25 26 26 27 28 29 29 28 28 29 31 31 34 35 33 32 34 36 37 37 37 34 31 31 27 25 27 27 27 28 27 26 28 32 35 35 32 32 32 28 23 19 17 17 17 17 17 17 16 16 16 14 14 18 20 17 16 15 13 13 14 13 14 15 14 13 11
16 15 14 13 13 13 13 12 11 11 13 15 17 20 21 23 25 25 25 26 26 27 28 28 28 28 28 29 30 31 34 35 32 31 32 35 37 38 37 34 32 32 29 26 27 26 26 28 28 27 31 35 36 36 34 33 33 31 25 20 18 18 18 18 18 17 17 16 17 15 15 17 18 17 17 16 15 14 14 14 15 16 17 16 14
14 14 14 14 14 13 13 12 12 13 13 14 16 19 21 22 24 24 24 25 27 27 26 27 27 27 29 30 31 32 34 34 30 28 32 37 39 39 37 34 32 32 29 26 26 26 26 29 30 30 32 35 36 36 35 34 34 33 28 22 19 19 20 19 19 19 18 18 18 17 16 16 17 19 18 16 16 16 15 15 15 16 18 17 16
14 14 15 14 12 12 13 14 15 15 14 14 15 17 19 20 21 22 23 25 26 26 25 26 27 28 30 31 33 33 32 32 29 28 34 40 40 39 37 34 31 30 29 27 26 26 26 29 32 32 32 33 35 37 36 35 35 34 30 24 20 20 21 20 20 20 19 19 19 18 17 16 17 20 19 17 17 17 17 17 16 16 16 16 17
12 14 14 12 11 12 13 15 16 16 14 14 15 16 18 19 20 23 24 25 26 25 25 26 27 29 31 32 33 33 32 32 32 32 37 41 39 39 38 34 32 30 28 27 26 26 29 32 33 34 32 31 34 37 36 36 36 34 31 26 20 20 21 20 21 21 20 20 20 19 18 17 18 19 20 18 18 17 17 17 16 15 14 14 15
10 12 13 12 12 13 15 16 16 15 14 14 15 15 17 19 21 23 23 24 25 25 26 27 28 30 32 32 34 34 33 34 35 38 42 42 39 38 37 35 34 30 26 24 24 26 30 34 35 36 34 31 33 38 38 37 37 35 33 27 20 20 21 20 20 21 20 20 20 20 19 18 18 19 21 21 19 17 16 17 16 15 14 12 12
10 12 14 15 15 16 17 17 17 16 15 15 15 16 18 19 20 21 23 24 24 25 26 28 29 32 33 33 35 34 32 34 39 43 43 39 36 36 36 34 32 29 26 25 24 23 27 30 32 36 36 33 34 38 39 38 38 37 35 27 20 19 20 19 19 20 19 19 20 21 20 18 18 19 22 24 22 18 16 16 16 15 14 12 12
10 11 14 17 17 17 17 17 17 17 16 15 15 17 19 20 20 21 22 23 24 26 28 29 30 33 34 35 36 34 33 37 42 41 36 33 33 34 35 35 33 30 28 26 24 22 23 25 28 33 35 36 36 38 40 39 38 39 36 28 21 20 20 18 18 18 18 19 20 22 22 19 18 20 22 25 25 20 16 16 16 15 14 13 12
12 12 13 16 17 17 18 19 19 18 17 15 16 17 19 21 21 21 22 23 25 27 29 29 31 32 33 34 34 33 35 38 39 35 31 31 33 33 35 37 36 31 26 24 24 24 24 23 26 30 34 36 37 39 41 40 40 41 38 28 21 20 20 19 19 19 18 18 19 23 25 20 18 20 22 24 25 21 16 15 16 15 14 14 13
13 13 14 16 17 16 17 18 19 17 16 15 15 17 19 21 21 22 23 24 26 28 28 29 30 31 32 32 31 33 36 36 33 30 28 28 29 31 35 37 33 27 24 24 25 26 25 23 22 27 32 35 37 41 42 42 41 42 39 29 22 21 21 21 20 19 19 19 18 21 26 24 20 21 22 22 22 22 18 15 15 15 13 13 13
13 13 14 16 16 16 16 19 18 15 13 14 15 16 18 19 20 21 23 24 25 26 26 27 29 30 31 30 31 35 36 33 29 27 26 27 31 32 33 32 29 26 25 25 26 26 26 23 21 24 30 34 37 42 43 43 42 43 41 33 23 21 21 20 19 19 19 19 19 19 24 27 25 22 22 21 21 22 20 16 14 14 13 12 12
13 13 14 15 15 15 16 18 18 14 13 14 15 15 16 17 18 20 21 22 23 24 25 26 27 29 30 30 32 34 32 30 29 27 26 31 34 34 31 28 28 29 27 25 25 24 25 25 22 24 29 31 33 39 43 45 44 43 43 37 26 21 22 22 19 19 19 18 19 18 20 26 27 23 23 21 20 22 23 17 13 14 14 14 12
13 14 15 14 14 14 14 16 16 13 12 14 15 15 15 16 17 18 19 19 21 23 24 24 25 27 30 31 32 32 31 30 30 29 31 33 31 31 32 28 26 28 28 25 23 24 25 25 22 22 26 27 27 33 40 44 44 43 43 40 31 25 25 24 20 19 18 17 18 17 18 24 26 24 23 22 19 21 24 20 14 15 16 15 12
13 14 15 15 14 14 13 14 14 12 11 13 14 14 15 15 16 17 17 18 20 22 23 22 23 26 28 29 28 29 32 33 31 31 35 35 29 28 31 28 24 25 26 23 22 23 24 24 22 21 23 22 23 30 38 42 44 43 43 41 36 30 29 26 20 17 18 16 16 18 19 22 25 24 23 22 19 19 22 21 18 17 18 15 12
13 14 15 14 14 13 12 14 14 12 11 12 13 13 13 14 15 16 17 18 21 23 23 23 22 24 26 27 25 26 29 32 32 35 37 33 27 24 25 26 25 24 22 20 22 23 22 22 21 22 23 22 22 28 36 40 43 44 42 41 38 33 31 29 21 16 16 16 16 19 20 21 23 24 23 22 21 20 21 21 20 19 18 15 13
11 12 12 13 14 13 12 12 12 11 10 11 12 12 13 14 15 16 17 20 22 22 22 21 21 22 24 25 25 26 27 29 34 38 35 28 27 27 26 25 24 22 22 21 21 21 21 21 20 21 22 21 22 29 37 40 42 44 43 42 39 34 31 30 24 16 16 18 18 19 20 20 21 24 24 23 24 23 21 21 21 20 18 15 14
10 10 10 11 11 10 9 9 9 9 8 9 10 11 12 12 13 15 16 18 20 20 19 19 20 22 24 24 23 24 25 28 34 36 29 25 28 31 29 27 23 21 21 21 21 22 22 21 21 21 20 19 19 26 36 40 43 45 44 42 39 34 31 31 27 20 18 20 20 18 19 19 20 23 25 24 24 23 23 25 24 22 20 17 15
10 10 9 9 9 7 6 6 6 5 5 4 7 9 10 10 12 14 15 16 18 18 16 17 18 21 23 24 24 24 24 26 32 33 27 26 29 29 29 30 29 28 26 23 21 23 24 23 22 22 22 20 19 24 33 42 46 46 44 42 40 36 33 33 30 22 17 19 20 19 18 18 20 22 23 23 22 21 22 24 23 20 19 19 18
10 9 5 4 4 2 2 2 2 1 2 2 4 8 10 10 11 13 14 15 16 16 16 17 19 19 19 19 21 23 23 23 28 30 28 27 29 27 26 28 31 35 36 31 26 25 24 24 27 29 28 26 24 26 34 44 49 48 47 46 44 39 37 36 34 25 18 17 19 19 17 17 18 19 20 20 19 19 19 20 20 20 19 19 19
7 5 2 2 2 3 3 2 2 3 2 1 3 6 8 10 11 12 12 12 15 15 16 17 19 19 17 15 16 18 19 21 25 26 24 24 24 24 25 28 31 36 39 37 33 32 30 29 33 38 39 36 33 34 38 45 48 49 48 47 44 42 39 36 33 28 21 17 18 17 16 17 17 17 19 20 20 20 19 18 19 20 20 20 19
5 6 7 7 7 7 7 6 6 5 5 4 2 3 4 6 9 10 10 11 14 13 13 15 17 16 15 15 14 13 15 18 22 23 22 21 20 20 23 27 31 35 36 35 34 35 35 35 37 41 41 37 33 34 39 45 49 50 49 47 44 41 37 33 32 32 24 17 17 17 16 17 18 18 20 21 20 19 19 18 18 20 20 21 20
Wind_Direction
219 200 182 185 190 187 185 184 183 183 189 197 194 195 193 186 186 189 193 193 189 189 190 193 197 196 196 198 198 200 201 202 204 203 200 197 196 194 195 196 194 195 196 198 198 195 195 193 189 192 196 200 201 202 201 196 194 191 186 186 186 182 172 167 162 156 152 151 152 146 157 180 190 193 194 196 195 190 188 183 174 174 175 170 167
219 207 183 179 181 180 181 180 181 183 190 199 196 191 190 186 185 186 190 194 193 191 192 197 199 196 196 197 197 199 200 202 204 205 203 199 196 196 196 197 197 196 195 200 201 197 196 196 194 196 201 204 206 206 202 196 194 189 184 186 190 190 182 171 166 168 169 167 165 159 170 198 210 216 217 208 206 205 199 193 185 185 185 176 170
217 208 181 174 178 181 183 183 186 187 191 199 199 192 189 189 187 186 188 192 195 195 196 198 198 196 193 194 197 199 201 203 205 204 204 200 195 195 196 197 201 200 196 200 205 202 199 198 197 200 204 206 208 205 200 197 196 191 189 189 188 189 186 178 178 187 192 175 170 179 190 200 210 214 218 216 210 211 207 200 197 196 193 182 177
218 211 188 177 177 181 187 189 187 186 191 200 198 189 191 193 189 187 187 190 193 193 195 196 195 193 189 191 196 200 202 202 203 204 204 201 194 194 197 198 202 203 201 202 206 206 203 200 198 201 205 208 210 205 200 200 197 192 194 194 189 189 187 184 190 202 204 183 182 201 186 202 234 201 195 206 207 210 212 206 203 203 201 188 185
220 217 200 183 181 184 190 192 187 185 194 201 196 191 195 194 189 187 187 189 189 186 189 192 192 191 186 187 193 198 203 202 202 203 203 202 196 194 197 199 202 205 205 203 205 208 206 201 200 201 205 207 210 208 203 203 200 195 196 197 196 196 192 188 193 204 210 207 213 227 183 220 267 168 170 192 199 209 214 207 209 208 205 199 198
224 224 211 189 184 189 191 193 189 189 196 199 198 199 200 193 188 188 188 190 188 182 184 188 193 194 189 188 191 196 202 202 202 202 200 201 199 195 197 202 205 206 206 204 205 209 207 204 203 204 205 206 209 208 204 203 202 198 197 200 203 205 201 195 196 200 210 220 225 240 255 279 299 146 160 182 185 206 213 205 211 210 209 208 206
225 227 223 205 189 190 192 193 193 195 198 197 198 201 199 192 189 189 190 191 187 183 182 184 192 197 194 191 193 198 201 202 203 203 202 203 200 195 196 203 207 206 207 206 207 209 208 207 207 207 207 207 208 207 204 203 202 199 199 202 205 207 206 204 204 199 204 219 223 234 250 263 268 229 244 253 179 200 208 204 209 207 209 213 212
224 224 225 217 198 192 193 194 198 201 200 196 196 197 196 193 191 190 190 189 187 185 185 186 190 196 197 195 196 199 200 202 203 205 207 206 202 199 199 203 206 206 207 207 208 209 207 209 210 209 209 209 207 206 205 203 201 199 201 205 207 208 208 210 211 201 205 217 216 225 237 243 250 248 257 269 262 230 200 196 205 204 205 210 214
227 225 223 219 206 198 196 197 202 203 202 199 197 195 194 192 189 190 193 193 189 187 189 191 192 192 193 194 196 198 199 202 202 204 207 204 201 200 200 203 204 204 206 207 209 208 207 210 212 210 210 209 207 206 204 203 202 200 203 207 209 212 212 215 218 211 215 221 212 218 230 233 239 243 250 257 262 266 218 187 194 194 202 209 209
229 229 225 219 212 205 199 200 202 201 201 201 198 193 190 188 186 188 195 197 192 188 190 194 196 195 192 192 195 196 197 200 201 203 204 202 201 199 199 201 203 202 203 208 210 208 208 211 211 211 211 209 207 206 203 202 204 204 207 210 212 216 218 220 226 224 223 225 220 222 226 228 234 238 241 243 247 253 252 223 191 184 204 206 199
226 229 229 222 218 211 203 202 202 197 194 196 197 195 190 187 189 192 197 197 194 193 195 198 202 203 198 194 194 193 192 195 199 201 200 201 200 198 198 200 201 201 202 207 211 209 209 211 211 211 211 209 208 206 202 201 204 206 210 214 216 222 224 224 230 233 232 229 226 226 227 228 232 234 235 235 237 239 249 251 213 205 226 206 191
224 227 228 223 219 214 208 204 199 194 188 189 196 198 193 192 194 198 200 198 197 198 199 203 208 207 204 199 195 192 191 191 196 200 198 198 199 197 198 198 199 202 202 207 211 209 210 212 212 211 210 210 208 205 203 201 203 207 211 216 220 226 231 231 232 232 234 233 228 228 230 232 234 237 239 234 235 239 243 254 248 239 236 196 179
227 225 225 223 220 216 210 203 198 197 194 192 196 198 196 197 198 201 203 199 200 202 201 206 210 208 206 205 199 193 192 190 194 200 201 200 199 199 198 197 201 203 203 207 210 208 210 212 211 209 208 209 207 205 204 201 202 206 212 219 224 228 230 231 231 229 228 229 230 230 232 235 235 236 241 239 236 240 242 251 259 245 218 191 175
231 227 225 224 222 219 213 206 203 203 199 196 198 197 196 198 199 203 206 202 202 203 203 208 210 208 208 207 202 195 193 193 197 201 203 203 203 201 199 200 204 204 205 208 209 208 210 211 211 208 206 206 206 204 202 200 203 208 215 221 225 228 228 226 227 226 225 227 228 230 231 234 236 235 238 239 234 235 241 248 250 229 216 210 190
229 228 227 226 224 222 218 212 208 205 200 199 200 198 197 198 199 202 203 201 202 204 206 210 210 209 209 208 205 199 194 194 197 202 203 202 204 203 199 202 205 205 208 209 208 207 208 210 209 206 204 204 204 202 199 200 204 208 216 221 222 224 222 220 221 221 222 223 224 228 231 233 235 234 233 234 233 235 240 242 236 219 213 209 204
229 228 227 227 226 225 222 218 214 207 202 202 201 199 199 201 202 202 201 200 201 203 208 211 210 209 209 209 208 203 195 193 194 199 201 200 203 203 199 203 206 207 210 210 207 207 207 207 206 205 205 203 202 200 198 200 203 206 212 215 212 211 211 212 215 218 220 222 223 226 229 232 233 232 230 231 233 235 237 235 227 219 220 213 207
231 230 228 227 225 224 224 224 220 212 206 203 201 200 200 202 203 202 202 203 202 203 207 211 210 210 210 210 209 206 200 195 191 193 195 196 201 203 200 204 208 207 208 208 206 206 207 204 202 203 203 201 200 200 200 201 201 201 204 206 203 202 204 206 210 215 218 219 221 223 225 230 230 227 226 226 227 229 230 230 225 223 230 229 216
235 233 232 230 229 228 226 226 224 217 212 207 204 201 201 203 203 202 202 203 203 203 207 209 207 207 211 210 208 207 205 200 192 187 190 194 199 201 200 203 206 205 205 206 204 204 204 203 201 201 201 199 199 199 199 199 197 196 199 201 198 197 200 205 209 213 214 213 215 216 217 221 220 217 217 216 217 221 223 226 228 227 230 233 238
241 239 238 236 236 234 228 224 224 221 216 213 209 204 203 205 205 204 205 204 204 203 204 206 205 206 212 212 209 209 208 205 197 188 187 194 198 198 199 203 203 201 203 205 203 201 201 199 200 200 198 197 198 198 196 194 193 192 193 196 195 195 200 205 207 208 209 209 208 207 208 209 205 201 203 205 209 215 217 222 227 227 230 232 238
248 248 246 245 243 241 233 226 224 222 219 216 213 209 207 208 207 208 208 207 206 204 202 205 207 208 212 213 210 210 210 208 202 193 190 195 198 197 199 203 202 199 202 205 201 198 196 194 194 196 195 195 196 196 194 192 192 191 192 196 196 197 202 206 205 203 202 203 202 201 202 200 194 192 197 201 206 213 217 222 226 224 227 226 227
263 262 260 259 256 254 248 240 234 230 223 219 216 213 210 209 209 209 209 208 206 203 201 203 207 210 212 213 211 210 210 208 204 199 195 195 195 197 199 201 202 200 200 202 197 193 193 191 191 193 192 192 193 194 193 192 192 192 192 197 196 197 203 204 201 199 197 197 196 197 196 191 189 191 196 201 203 210 213 218 223 218 219 218 214
274 274 271 266 261 259 257 251 245 239 231 224 219 216 213 210 209 208 208 208 205 202 202 203 207 212 213 213 212 209 208 207 202 200 200 195 192 197 200 200 202 202 199 198 195 191 191 191 191 192 191 191 191 192 194 193 192 192 191 194 195 197 201 200 197 194 192 191 190 192 190 184 185 190 194 198 196 198 202 207 213 211 213 213 208
277 279 276 269 260 253 252 249 244 241 237 229 223 218 215 210 207 206 207 207 205 204 204 203 208 212 212 211 210 207 207 206 202 202 204 196 191 198 201 199 202 203 198 197 194 191 191 189 190 191 190 190 190 191 195 196 193 191 192 194 194 196 199 197 195 193 189 186 186 188 187 180 181 186 189 191 187 187 193 196 199 203 207 207 204
273 275 275 269 258 246 243 241 238 236 234 230 224 219 215 211 207 206 206 205 203 203 202 201 205 209 210 210 208 206 207 207 204 206 206 198 193 198 200 200 203 202 197 194 192 191 191 189 190 191 188 189 188 190 196 197 194 194 194 193 193 195 198 197 195 192 188 186 186 187 185 182 182 185 185 185 183 182 186 186 183 188 190 180 180
277 276 273 269 263 250 241 237 236 233 230 228 223 217 213 211 208 206 205 203 201 200 199 199 201 203 205 209 208 207 207 205 205 208 207 201 197 197 197 199 202 201 194 189 188 190 191 189 190 190 188 188 188 191 195 193 194 197 195 192 193 194 196 196 194 191 188 186 187 186 184 183 182 184 184 184 183 181 179 177 174 168 154 139 156
283 280 274 267 261 252 243 236 236 235 232 229 224 218 213 210 208 205 204 203 201 199 199 200 200 199 202 207 207 206 206 205 207 208 205 201 199 196 196 199 202 201 192 185 187 190 190 191 191 190 189 188 189 193 194 192 197 199 194 190 191 192 193 194 191 189 188 187 187 186 184 183 183 183 183 181 178 176 173 169 164 154 144 149 176
283 280 278 275 263 252 246 238 235 236 234 229 225 220 214 210 207 204 203 203 200 198 197 197 197 197 200 206 208 207 207 205 206 207 204 201 200 198 198 199 201 200 191 184 187 189 190 192 191 189 190 190 190 190 191 194 197 196 191 188 189 189 190 191 189 188 188 187 186 186 184 184 185 184 182 178 174 173 173 168 160 154 157 168 184
282 280 287 294 291 277 266 251 240 236 231 227 225 222 217 211 206 202 202 202 197 195 195 195 195 195 198 205 209 209 207 204 204 205 204 201 199 197 198 198 200 200 192 185 186 188 190 192 190 189 190 189 188 187 190 196 196 191 189 188 187 187 187 187 188 187 187 185 185 185 185 185 186 184 180 176 174 172 170 169 166 164 169 177 184
283 284 291 300 306 305 296 278 257 244 233 226 223 222 219 215 209 204 203 200 194 193 193 194 195 195 197 205 208 208 205 202 201 203 203 201 199 197 197 197 199 200 194 186 185 187 189 189 187 189 189 188 191 194 197 199 195 187 188 188 186 187 185 184 185 185 185 184 184 184 186 186 186 184 182 178 179 179 172 172 176 175 176 182 185
280 280 286 297 308 311 305 291 274 256 240 229 222 219 217 215 211 208 204 198 194 194 195 194 196 196 198 203 206 206 204 201 199 200 200 199 198 197 197 197 198 200 194 185 183 186 188 188 187 185 186 192 199 202 204 205 199 191 188 186 185 185 184 183 183 184 184 183 184 183 185 189 189 188 188 186 188 187 177 176 181 179 181 186 186
280 280 284 295 308 313 310 300 285 266 247 234 225 220 216 212 210 208 205 199 194 194 194 195 197 198 198 202 204 204 204 201 198 199 199 197 195 195 196 196 196 199 195 185 182 184 185 187 185 184 190 199 204 205 207 208 204 197 188 183 183 183 183 184 184 184 183 182 183 181 182 191 193 192 190 190 191 189 184 184 187 183 183 186 187
288 289 291 298 305 309 307 300 292 279 257 238 227 221 215 211 209 207 203 198 196 196 196 196 199 201 200 201 203 202 202 199 197 197 197 195 194 194 195 195 195 197 196 187 182 183 184 186 186 187 196 203 206 207 208 208 205 200 192 184 182 181 182 184 185 186 184 182 182 180 180 187 190 189 187 188 190 191 191 193 193 191 191 189 187
293 292 294 297 301 304 302 295 291 286 273 250 232 223 216 211 208 205 201 199 199 198 197 196 198 201 202 201 201 201 199 196 194 195 195 194 194 194 193 193 193 195 194 188 183 182 184 188 191 194 200 204 206 207 208 206 204 202 196 189 183 181 182 183 185 186 185 183 181 178 178 180 185 188 187 186 190 192 194 195 193 195 200 199 195
292 289 289 292 296 299 297 291 286 286 282 263 241 229 221 213 207 204 201 200 200 198 196 196 197 199 201 201 200 200 196 192 191 192 193 194 194 193 192 192 191 192 192 190 185 182 185 191 195 198 200 202 205 208 207 206 204 202 198 193 185 183 184 184 185 186 185 183 181 179 178 179 183 188 187 185 187 190 193 194 190 191 200 206 204
287 286 286 290 295 295 291 287 283 285 284 266 246 232 222 213 206 203 201 200 200 198 197 198 198 199 200 200 200 199 193 191 193 193 193 194 193 191 192 192 191 190 192 192 187 184 190 196 198 199 200 200 204 208 207 205 204 202 198 193 186 184 186 185 185 185 184 183 182 181 181 182 182 186 189 188 186 185 186 187 187 188 194 202 207
281 284 287 291 293 290 286 285 283 284 282 266 248 233 221 212 205 203 202 201 201 200 199 199 199 199 198 197 198 197 192 191 192 192 191 192 191 192 193 192 192 191 191 192 191 189 194 200 200 201 200 199 204 209 208 205 204 201 197 192 185 184 186 185 184 184 182 182 182 182 184 186 185 187 191 190 185 182 182 182 184 189 192 196 204
276 282 288 291 289 286 284 283 281 281 278 266 250 234 222 214 205 201 201 200 200 201 200 200 199 198 197 196 197 196 191 190 191 190 189 190 190 191 191 189 190 191 190 191 194 191 192 195 198 200 201 199 203 210 209 204 202 200 195 189 183 184 186 185 185 185 182 182 183 184 185 187 187 189 195 195 189 184 183 184 185 188 191 195 201
277 281 285 287 286 284 284 283 281 278 272 262 248 234 223 215 208 202 200 200 201 201 200 199 199 198 197 197 198 195 189 187 189 188 187 188 189 190 191 191 192 193 191 191 193 194 191 190 192 197 200 199 204 210 208 203 202 200 194 187 183 185 185 184 185 185 185 185 185 186 187 187 187 193 201 201 196 192 189 189 189 187 190 197 200
284 284 283 285 286 287 287 283 279 274 266 253 240 232 224 217 211 204 200 200 201 202 201 197 196 198 198 198 198 194 188 187 189 188 185 187 189 188 191 194 193 192 189 188 192 197 195 190 191 197 200 200 204 209 207 203 201 199 194 188 185 184 183 184 185 184 185 187 185 187 190 187 188 198 204 202 200 199 193 191 191 189 192 200 202
285 286 286 287 288 287 284 280 276 272 260 243 232 227 222 218 213 207 204 204 202 202 201 197 195 197 200 199 194 191 189 188 188 186 182 183 185 185 188 190 191 190 188 188 192 195 193 189 191 199 201 200 205 209 206 202 201 199 194 190 186 186 185 183 183 182 183 185 184 187 193 193 193 201 203 201 202 200 191 190 193 193 196 200 200
286 291 291 289 286 281 277 277 277 272 252 231 224 222 220 218 216 211 209 207 204 202 201 198 195 196 199 198 191 188 190 189 185 182 180 182 184 185 185 185 187 188 189 192 195 195 194 195 197 202 202 200 204 208 204 200 200 199 195 191 187 187 184 180 181 184 184 187 185 183 192 198 200 203 201 200 204 199 189 188 196 198 200 199 194
287 289 287 284 282 278 274 273 272 265 245 225 218 218 220 220 219 218 216 210 205 203 200 197 195 194 196 194 189 187 187 186 182 179 179 183 186 187 185 183 186 190 190 192 192 190 193 198 202 207 206 202 204 208 204 199 198 198 197 193 189 186 182 178 182 188 187 189 188 182 189 198 201 203 201 200 204 200 192 191 199 203 203 199 193
287 286 283 281 280 278 274 271 267 258 240 226 215 212 217 220 219 220 219 211 207 204 200 197 196 194 192 191 188 186 183 182 181 179 179 182 184 186 186 184 185 188 188 187 187 187 189 192 194 202 204 198 199 206 204 199 197 197 198 197 193 190 187 182 182 188 190 191 187 182 188 196 197 198 200 201 204 202 199 198 201 205 207 202 199
284 284 283 282 278 273 270 270 268 256 239 230 220 212 214 217 217 218 216 210 207 204 200 196 193 192 191 188 184 183 182 182 181 180 182 184 184 186 187 185 183 184 184 183 184 185 187 188 188 194 198 193 194 202 203 200 198 197 198 199 198 196 192 188 186 191 194 189 182 182 190 196 195 195 198 201 203 204 204 204 205 208 211 207 206
282 282 280 277 272 267 264 265 265 256 240 231 224 217 212 212 215 217 212 206 202 201 198 194 190 191 190 185 180 181 183 182 181 182 183 184 182 182 184 184 184 183 179 177 179 182 186 187 186 191 194 190 190 197 200 200 199 198 198 200 200 200 198 194 192 193 192 185 179 186 195 197 195 195 196 200 205 208 208 209 210 212 213 212 216
276 279 281 277 269 261 257 258 261 259 246 234 227 221 214 210 213 214 209 204 201 197 192 188 186 188 188 183 180 181 181 181 182 184 185 184 182 182 182 183 184 185 182 177 173 175 180 182 185 191 193 188 187 194 197 197 198 198 198 199 200 201 201 199 198 197 194 191 191 197 202 200 196 195 196 200 206 210 211 212 215 217 218 218 221
277 278 280 276 266 257 254 255 260 266 257 239 232 228 217 210 211 211 207 203 199 193 186 183 184 186 189 188 183 178 177 180 183 185 186 186 186 185 183 181 181 179 179 178 173 172 176 178 180 183 182 181 187 192 193 195 196 196 196 197 198 199 200 200 201 202 200 198 199 202 205 202 199 198 199 202 207 211 214 215 217 220 221 221 222
287 280 275 267 258 258 260 249 250 272 278 251 240 237 223 209 208 208 204 200 196 188 184 187 189 188 189 191 186 178 175 179 184 186 186 186 185 184 183 184 185 183 181 179 176 178 180 178 174 171 168 174 189 194 193 194 195 194 193 193 195 197 198 199 201 201 195 194 196 197 195 195 195 196 197 201 204 208 212 214 215 216 219 221 223
281 281 284 275 257 257 265 232 217 324 327 269 245 241 227 213 208 207 202 197 192 186 186 192 194 191 189 186 182 177 176 180 185 189 189 187 186 185 185 189 195 195 193 190 185 184 182 179 179 180 178 180 191 197 197 197 197 195 194 194 194 194 196 199 200 195 182 178 184 184 180 181 185 189 192 197 202 205 208 210 210 213 217 219 219
289 302 23 50 76 99 89 80 65 44 35 3 255 240 224 214 209 207 204 198 192 189 190 193 195 194 188 178 172 175 179 181 183 185 186 186 187 189 191 196 203 205 202 200 199 196 191 186 188 194 196 196 197 198 198 197 197 197 197 197 196 194 194 196 194 187 177 171 175 176 177 181 185 189 194 199 204 206 207 208 208 210 215 216 215
336 6 41 51 60 75 78 73 65 53 45 30 337 272 246 231 215 209 212 206 194 187 189 193 194 192 186 181 178 177 176 176 177 180 183 185 186 190 195 201 207 208 205 204 206 205 200 197 198 199 200 201 202 202 201 199 198 197 197 197 196 194 192 192 189 183 177 173 176 180 185 189 191 195 199 202 205 206 207 208 207 207 210 213 215